DL9NDS-13 Weather Reports


time (UTC)temp
C
wind
direction
speed
KPH
gust
KPH
rain 1hr
cm
rain 24hr
cm
rain mn
cm
humidity
%
barometer
mb
20260507071705 11 248 0.0 4.8 0.00 0.53 0.38 91 1010.2
20260507071205 11 248 1.6 6.4 0.00 0.53 0.38 91 1010.2
20260507070705 11 248 1.6 12.9 0.00 0.53 0.38 91 1010.2
20260507070205 11 241 3.2 12.9 0.00 0.53 0.38 91 1010.1
20260507065705 10 241 4.8 12.9 0.00 0.53 0.38 91 1010.0
20260507064704 10 256 1.6 9.7 0.00 0.53 0.38 91 1010.1
20260507064205 10 231 1.6 9.7 0.00 0.53 0.38 91 1010.0
20260507063705 10 256 0.0 6.4 0.00 0.53 0.38 91 1010.0
20260507062705 10 260 3.2 11.3 0.00 0.53 0.38 91 1009.9
20260507061705 10 180 3.2 12.9 0.00 0.53 0.38 91 1009.8
20260507061208 10 249 3.2 12.9 0.00 0.53 0.38 91 1009.7
20260507060705 10 227 3.2 12.9 0.00 0.53 0.38 91 1009.6
20260507060205 10 254 3.2 11.3 0.00 0.53 0.38 91 1009.6
20260507055705 10 230 3.2 12.9 0.00 0.53 0.38 91 1009.6
20260507055205 10 214 3.2 12.9 0.00 0.53 0.38 91 1009.5
20260507054704 10 205 3.2 12.9 0.00 0.53 0.38 91 1009.5
20260507054205 10 234 3.2 11.3 0.00 0.53 0.38 91 1009.4
20260507053705 10 234 3.2 11.3 0.00 0.53 0.38 91 1009.4
20260507052705 10 213 3.2 8.0 0.00 0.53 0.38 91 1009.3
20260507052205 10 246 1.6 11.3 0.00 0.53 0.38 91 1009.2
20260507051705 10 246 3.2 11.3 0.00 0.53 0.38 91 1009.2
20260507051205 10 246 1.6 11.3 0.00 0.53 0.38 91 1009.2
20260507050705 10 237 1.6 11.3 0.00 0.53 0.38 91 1009.1
20260507050205 10 235 3.2 11.3 0.00 0.53 0.38 91 1009.1
20260507045704 10 227 3.2 12.9 0.00 0.53 0.38 91 1009.1
20260507045205 10 250 1.6 12.9 0.00 0.53 0.38 91 1009.1
20260507044705 10 244 1.6 12.9 0.00 0.53 0.38 91 1008.9
20260507044205 10 247 1.6 9.7 0.00 0.53 0.38 91 1008.9
20260507043705 10 236 0.0 0.0 0.00 0.53 0.38 91 1008.9
20260507043205 10 261 0.0 0.0 0.00 0.53 0.38 91 1008.8
20260507042705 10 250 0.0 8.0 0.00 0.53 0.38 91 1008.8
20260507042205 10 250 1.6 8.0 0.00 0.53 0.38 91 1008.7
20260507041705 10 219 1.6 8.0 0.00 0.53 0.38 91 1008.7
20260507041205 10 226 1.6 6.4 0.00 0.53 0.38 91 1008.5
20260507040705 10 270 0.0 4.8 0.00 0.53 0.38 91 1008.5
20260507035705 10 273 1.6 12.9 0.00 0.53 0.38 91 1008.4
20260507035344 10 244 3.2 12.9 0.00 0.53 0.38 91 1008.3
20260507033704 10 242 0.0 9.7 0.00 0.53 0.38 91 1008.3
20260507032705 10 259 1.6 11.3 0.00 0.53 0.38 91 1008.3
20260507031705 10 265 1.6 11.3 0.00 0.53 0.38 91 1008.2
20260507031205 10 233 1.6 16.1 0.00 0.53 0.38 91 1008.2
20260507030208 10 255 8.0 16.1 0.00 0.56 0.38 91 1008.1
20260507025205 10 257 8.0 16.1 0.00 0.56 0.38 91 1008.0
20260507024705 10 265 4.8 16.1 0.00 0.56 0.38 91 1008.0
20260507024205 10 240 3.2 8.0 0.00 0.56 0.38 91 1007.9
20260507023705 10 247 0.0 3.2 0.03 0.56 0.38 91 1007.9
20260507023206 10 254 0.0 8.0 0.05 0.56 0.38 91 1007.9
20260507021705 10 254 3.2 14.5 0.05 0.56 0.38 91 1007.9
20260507020705 10 254 6.4 19.3 0.05 0.56 0.38 91 1007.9
20260507020205 10 255 6.4 19.3 0.05 0.56 0.38 91 1007.8
20260507015705 11 247 3.2 11.3 0.05 0.56 0.38 91 1007.8
20260507014705 11 252 0.0 8.0 0.10 0.56 0.38 91 1007.8
20260507014205 11 252 0.0 11.3 0.08 0.53 0.36 91 1007.8
20260507013705 11 252 1.6 11.3 0.10 0.53 0.36 91 1007.7
20260507013205 11 252 3.2 12.9 0.10 0.51 0.33 91 1007.7
20260507011705 11 264 3.2 11.3 0.15 0.51 0.33 91 1007.7
20260507010231 11 248 0.0 8.0 0.20 0.51 0.33 91 1007.6
20260507005705 11 248 0.0 8.0 0.18 0.48 0.30 91 1007.5
20260507005205 11 248 1.6 8.0 0.20 0.48 0.30 91 1007.5
20260507004205 11 249 4.8 11.3 0.15 0.43 0.25 91 1007.5
20260507003705 11 250 4.8 12.9 0.18 0.43 0.25 91 1007.5
20260507003205 11 250 4.8 12.9 0.15 0.43 0.23 91 1007.5
20260507002705 11 233 1.6 12.9 0.15 0.43 0.23 91 1007.5
20260507001705 11 235 3.2 12.9 0.08 0.33 0.15 91 1007.4
20260507001205 11 227 4.8 12.9 0.05 0.33 0.15 91 1007.4
20260507000705 11 205 4.8 9.7 0.05 0.33 0.15 91 1007.4
20260507000205 11 227 3.2 9.7 0.05 0.30 0.13 91 1007.5
20260506235705 11 221 1.6 8.0 0.05 0.30 0.13 91 1007.5
20260506235205 11 248 3.2 9.7 0.05 0.28 0.10 91 1007.5
20260506234705 11 240 3.2 9.7 0.08 0.28 0.10 91 1007.5
20260506234205 11 240 1.6 9.7 0.05 0.25 0.08 91 1007.5
20260506233205 11 220 0.0 4.8 0.08 0.25 0.08 91 1007.4
20260506232705 11 226 0.0 6.4 0.08 0.25 0.08 91 1007.3
20260506232205 11 226 0.0 6.4 0.08 0.25 0.08 91 1007.3
20260506230205 11 226 1.6 8.0 0.05 0.23 0.05 91 1007.2
20260506225708 11 236 0.0 6.4 0.05 0.23 0.05 91 1007.2
20260506225205 12 237 1.6 11.3 0.05 0.23 0.05 91 1007.1
20260506224705 12 237 3.2 11.3 0.03 0.20 0.03 91 1007.1
20260506224205 12 229 4.8 11.3 0.00 0.18 0.00 91 1007.1
20260506223705 12 224 1.6 0.0 0.00 0.18 0.00 91 1007.1
20260506223206 12 157 0.0 0.0 0.00 0.18 0.00 91 1007.0
20260506222705 12 157 0.0 0.0 0.00 0.18 0.00 91 1007.0
20260506222205 12 157 0.0 0.0 0.00 0.18 0.00 91 1007.0
20260506221705 12 132 0.0 0.0 0.00 0.18 0.00 91 1007.0
20260506221206 12 132 0.0 0.0 0.00 0.18 0.00 91 1007.0
20260506220708 12 149 0.0 0.0 0.00 0.18 0.00 91 1006.9
20260506220205 12 149 0.0 0.0 0.00 0.18 0.18 91 1007.0
20260506215705 12 149 0.0 0.0 0.00 0.18 0.18 91 1007.0
20260506215205 12 149 0.0 0.0 0.00 0.18 0.18 91 1006.9
20260506214705 12 149 0.0 0.0 0.00 0.18 0.18 91 1006.9
20260506214207 12 149 0.0 0.0 0.03 0.18 0.18 91 1007.0
20260506213206 12 149 0.0 0.0 0.03 0.18 0.18 91 1007.0
20260506212705 12 149 0.0 0.0 0.03 0.18 0.18 91 1006.9
20260506211705 12 120 0.0 0.0 0.03 0.18 0.18 91 1006.8
20260506211205 12 120 0.0 0.0 0.03 0.18 0.18 91 1006.8
20260506210705 12 120 0.0 0.0 0.03 0.18 0.18 91 1006.8
20260506210205 12 120 0.0 0.0 0.03 0.18 0.18 91 1006.7
20260506205705 12 120 0.0 0.0 0.05 0.18 0.18 91 1006.6
20260506205205 12 121 0.0 0.0 0.05 0.18 0.18 91 1006.6
20260506204705 12 121 0.0 0.0 0.05 0.18 0.18 91 1006.6
20260506204205 12 121 0.0 0.0 0.05 0.15 0.15 91 1006.6
20260506203705 12 121 0.0 0.0 0.05 0.15 0.15 91 1006.5
20260506203205 12 121 0.0 0.0 0.05 0.15 0.15 91 1006.5
20260506202705 12 121 0.0 0.0 0.05 0.15 0.15 91 1006.5
20260506202205 12 121 0.0 0.0 0.05 0.15 0.15 91 1006.6
20260506201705 12 121 0.0 0.0 0.05 0.15 0.15 91 1006.5
20260506201205 12 121 0.0 0.0 0.05 0.15 0.15 91 1006.5
20260506200705 12 121 0.0 0.0 0.05 0.15 0.15 91 1006.5
20260506200205 12 121 0.0 0.0 0.03 0.15 0.15 91 1006.4
20260506195205 12 120 0.0 0.0 0.00 0.13 0.13 91 1006.3
20260506194705 12 119 0.0 0.0 0.00 0.13 0.13 91 1006.2
20260506194205 12 141 0.0 0.0 0.00 0.13 0.13 91 1006.2
20260506193705 12 133 0.0 0.0 0.00 0.13 0.13 91 1006.1
20260506193205 13 131 0.0 0.0 0.00 0.13 0.13 91 1006.1
20260506192705 13 131 0.0 0.0 0.00 0.13 0.13 90 1005.9
20260506192205 13 131 0.0 0.0 0.00 0.13 0.13 91 1005.8
20260506191705 13 131 0.0 0.0 0.00 0.13 0.13 91 1005.7
20260506190705 13 131 0.0 0.0 0.00 0.13 0.13 90 1005.5
20260506190205 13 131 0.0 0.0 0.00 0.13 0.13 90 1005.4
20260506185205 13 131 0.0 0.0 0.00 0.13 0.13 90 1005.2
20260506184705 13 131 0.0 0.0 0.00 0.13 0.13 90 1005.1
20260506184205 13 131 0.0 0.0 0.00 0.13 0.13 90 1005.0
20260506183705 13 131 0.0 0.0 0.00 0.13 0.13 90 1005.0
20260506183215 13 131 0.0 0.0 0.00 0.13 0.13 90 1004.9
20260506182705 13 131 0.0 0.0 0.00 0.13 0.13 90 1004.9
20260506182205 13 131 0.0 0.0 0.00 0.13 0.13 90 1004.9
20260506181704 13 131 0.0 0.0 0.00 0.13 0.13 90 1004.9
20260506180720 13 131 0.0 0.0 0.00 0.13 0.13 90 1004.9
20260506180205 13 131 0.0 0.0 0.03 0.15 0.13 90 1004.9
20260506175705 13 131 0.0 0.0 0.05 0.15 0.13 90 1004.8
20260506175205 13 131 0.0 0.0 0.05 0.15 0.13 89 1004.8
20260506174705 13 131 0.0 0.0 0.08 0.18 0.13 89 1004.7
20260506174205 14 131 0.0 0.0 0.10 0.20 0.13 89 1004.7
20260506173705 14 131 0.0 0.0 0.10 0.23 0.13 89 1004.7
20260506172205 14 131 0.0 0.0 0.10 0.33 0.13 87 1004.5
20260506171705 14 131 0.0 0.0 0.10 0.33 0.13 87 1004.5
20260506171205 15 131 0.0 0.0 0.10 0.43 0.13 86 1004.5
20260506165705 16 150 0.0 0.0 0.05 1.09 0.08 83 1004.6
20260506165205 16 65 0.0 0.0 0.05 1.09 0.05 80 1004.6
20260506164705 16 333 0.0 0.0 0.00 1.04 0.03 79 1004.5
20260506164205 17 333 0.0 0.0 0.00 1.04 0.03 77 1004.5
20260506163705 17 333 0.0 0.0 0.00 1.04 0.03 76 1004.5
20260506163224 17 34 0.0 0.0 0.00 1.04 0.03 74 1004.5
20260506162704 17 34 0.0 0.0 0.00 1.04 0.03 71 1004.5
20260506162225 17 34 0.0 0.0 0.00 1.04 0.03 71 1004.5
20260506160733 18 34 0.0 0.0 0.00 1.04 0.03 67 1004.5
20260506160220 18 34 0.0 0.0 0.00 1.04 0.03 63 1004.4
20260506155704 18 34 0.0 0.0 0.00 1.04 0.03 64 1004.4
20260506155205 18 34 0.0 0.0 0.00 1.04 0.03 66 1004.4
20260506154205 18 34 0.0 3.2 0.00 1.04 0.03 62 1004.4
20260506153705 18 34 0.0 3.2 0.00 1.04 0.03 62 1004.4
20260506152705 18 34 0.0 0.0 0.00 1.04 0.03 64 1004.3
20260506152205 18 34 0.0 0.0 0.00 1.04 0.03 63 1004.2
20260506151705 18 34 0.0 4.8 0.00 1.04 0.03 62 1004.3
20260506151208 18 34 0.0 6.4 0.00 1.04 0.03 62 1004.4
20260506150704 18 34 1.6 6.4 0.00 1.04 0.03 64 1004.3
20260506150205 18 34 0.0 6.4 0.00 1.04 0.03 64 1004.3
20260506145205 18 74 0.0 4.8 0.00 1.04 0.03 63 1004.4
20260506144705 18 84 0.0 1.6 0.00 1.04 0.03 66 1004.4
20260506144204 18 84 0.0 4.8 0.00 1.04 0.03 64 1004.4
20260506143708 18 84 0.0 4.8 0.00 1.04 0.03 63 1004.4
20260506143205 18 84 0.0 0.0 0.00 1.04 0.03 62 1004.5
20260506142705 18 111 0.0 0.0 0.00 1.04 0.03 63 1004.5
20260506142208 18 111 0.0 0.0 0.00 1.04 0.03 63 1004.5
20260506141705 18 111 0.0 0.0 0.00 1.04 0.03 65 1004.5
20260506141205 18 111 0.0 0.0 0.00 1.04 0.03 64 1004.6
20260506140705 18 111 0.0 0.0 0.00 1.04 0.03 65 1004.6
20260506140205 18 111 0.0 0.0 0.00 1.04 0.03 65 1004.7
20260506135705 18 111 0.0 0.0 0.00 1.04 0.03 63 1004.6
20260506135205 18 111 0.0 6.4 0.00 1.04 0.03 62 1004.7
20260506134205 18 245 0.0 6.4 0.00 1.04 0.03 63 1004.7
20260506133205 18 245 0.0 0.0 0.00 1.04 0.03 64 1004.8
20260506132205 18 245 0.0 4.8 0.00 1.04 0.03 66 1004.9
20260506131705 18 245 0.0 4.8 0.00 1.04 0.03 65 1004.9
20260506131205 18 245 0.0 4.8 0.00 1.04 0.03 66 1004.9
20260506130205 18 245 0.0 0.0 0.00 1.04 0.03 64 1005.0
20260506125705 18 245 0.0 8.0 0.00 1.04 0.03 63 1004.9
20260506125205 18 245 0.0 16.1 0.00 1.04 0.03 63 1005.1
20260506124705 18 245 3.2 16.1 0.00 1.04 0.03 64 1005.1
20260506124205 18 245 3.2 16.1 0.00 1.04 0.03 63 1005.0
20260506123708 18 262 0.0 0.0 0.00 1.04 0.03 65 1005.0
20260506123206 18 261 0.0 3.2 0.00 1.04 0.03 67 1005.1
20260506122705 18 261 0.0 3.2 0.00 1.04 0.03 66 1005.1
20260506122205 18 261 0.0 3.2 0.00 1.04 0.03 65 1005.2
20260506121705 18 261 0.0 11.3 0.00 1.04 0.03 66 1005.2
20260506121205 18 261 0.0 11.3 0.00 1.04 0.03 66 1005.2
20260506120722 18 261 3.2 11.3 0.00 1.04 0.03 66 1005.2
20260506120205 18 266 3.2 11.3 0.00 1.04 0.03 66 1005.4
20260506115704 17 238 1.6 9.7 0.00 1.04 0.03 70 1005.4
20260506114705 17 202 3.2 11.3 0.00 1.04 0.03 69 1005.5
20260506114205 17 200 4.8 11.3 0.00 1.04 0.03 68 1005.6
20260506113705 17 245 3.2 9.7 0.00 1.04 0.03 70 1005.5
20260506113205 17 212 3.2 9.7 0.00 1.04 0.03 68 1005.6
20260506112205 17 224 1.6 12.9 0.00 1.04 0.03 69 1005.6
20260506111705 17 261 1.6 14.5 0.00 1.04 0.03 70 1005.7
20260506110205 17 193 3.2 17.7 0.00 1.04 0.03 69 1005.7
20260506105205 17 275 8.0 14.5 0.00 1.04 0.03 69 1005.8
20260506104705 17 221 6.4 14.5 0.00 1.04 0.03 72 1005.9
20260506103705 17 203 8.0 14.5 0.00 1.04 0.03 71 1006.0
20260506102205 16 239 6.4 16.1 0.00 1.04 0.03 75 1006.0
20260506101704 16 196 8.0 17.7 0.00 1.04 0.03 74 1006.1
20260506101205 16 201 9.7 17.7 0.00 1.04 0.03 74 1006.1
20260506100705 16 202 8.0 17.7 0.00 1.04 0.03 74 1006.2
20260506100226 16 227 6.4 14.5 0.00 1.04 0.03 75 1006.1
20260506095706 16 244 8.0 12.9 0.00 1.04 0.03 75 1006.1
20260506095205 16 258 6.4 11.3 0.00 1.04 0.03 77 1006.2
20260506094705 15 210 4.8 12.9 0.00 1.04 0.03 78 1006.2
20260506094205 15 216 4.8 12.9 0.00 1.04 0.03 77 1006.0
20260506093705 15 256 6.4 17.7 0.00 1.04 0.03 78 1006.1
20260506093205 15 273 6.4 17.7 0.00 1.04 0.03 78 1006.1
20260506092704 15 310 4.8 17.7 0.00 1.04 0.03 78 1006.1
20260506092205 15 267 3.2 16.1 0.00 1.04 0.03 80 1006.2
20260506091705 16 300 6.4 16.1 0.00 1.04 0.03 78 1006.1
20260506090705 16 263 6.4 14.5 0.00 1.04 0.03 78 1006.1
20260506090208 16 261 8.0 14.5 0.00 1.04 0.03 80 1006.1
20260506085705 15 239 6.4 14.5 0.00 1.04 0.03 81 1006.1
20260506085205 15 208 6.4 12.9 0.00 1.04 0.03 81 1006.1
20260506084705 15 247 6.4 14.5 0.00 1.04 0.03 83 1006.1
20260506084205 15 277 6.4 17.7 0.00 1.04 0.03 85 1006.1
20260506083705 14 276 6.4 17.7 0.00 1.04 0.03 84 1006.2
20260506083205 14 269 4.8 17.7 0.00 1.04 0.03 84 1006.3
20260506082705 14 255 3.2 6.4 0.00 1.04 0.03 85 1006.2
20260506082205 14 269 1.6 8.0 0.00 1.04 0.03 85 1006.1
20260506081705 14 269 1.6 11.3 0.00 1.04 0.03 85 1006.1
20260506080705 14 248 6.4 16.1 0.00 1.04 0.03 85 1006.0
20260506080205 14 263 8.0 16.1 0.00 1.04 0.03 85 1005.9
20260506072705 13 268 0.0 11.3 0.00 1.04 0.03 90 1005.7
20260506072205 13 267 3.2 11.3 0.00 1.04 0.03 90 1005.7